Powrót do katalogu

STARLINK-30407

AktywnyŁącznośćVLEO
NORAD 57823·PAYLOAD·🇺🇸 United States

Wystrzelony Sep 9, 2023 z Cape Canaveral Space Force Station

Loading…

Następne Przeloty (najbliższe 24 godziny)

TLE

ŚwieżeSource: CelesTrak SupGP

Epoka: Sep 14, 2026, 22:05 UTC

1 57823C 23138R   26257.92062500 -.00046920  00000+0 -16997-2 0  2571
2 57823  42.9988 140.1062 0001347 270.3043 209.9595 15.27597059    15

Śledź STARLINK-30407 w czasie rzeczywistym z AllMySat

Download on the App Store